FENGYUN 1C DEB, 37912

Orbit data source: Space-Track

FENGYUN 1C DEB, 37912 is space debris in SSO originally from a launch on Mon, 10 May 1999 UTC launched from the Taiyaun Space Center, China (TSC). Fengyun 1C debris stems from the Chinese weather satellite Fengyun-1C, which was intentionally destroyed by a Chinese anti-satellite missile in 2007. This event dramatically increased the amount of space debris, with thousands of trackable fragments posing hazards to satellites and human spaceflight. The Fengyun 1C debris cloud has become a focal point in discussions about space sustainability and the need for international regulations to prevent the creation of new debris.

Loading next visibility...
Identifier
37912, 1999-025ENM
Orbit
SSO
Country
Flag of CNCN / PRC
Related business
Manufacturer
Unknown
Mission
Spacecraft
Bus & Motor
Unknown
Mass
Unknown
Launch date (UTC)
1999-05-10 (27 years ago)
Launch vehicle
Unknown
Launch site
Taiyaun Space Center, China (TSC)
Object type
Payload
Rocket body
Debris
Shape & HBR
Unknown shape, 0.1 m
Radar Cross Section
Small (<0.1 m²)

Expand to show TLE details & history
Last TLE update: 3 days ago

TLE from 3 days ago
0 FENGYUN 1C DEB
1 37912U 99025ENM 26252.39275079  .00002689  00000-0  13993-2 0  9998
2 37912  99.2366 234.2738 0091331  23.2709 337.2557 14.13393586811092
Epoch: 2026-09-09T09:25Z
TLE epoch observation values (Epoch: 2026-09-09T09:25:33.668Z)
Latitude
-0.00005°
Longitude
104.43806°
Altitude
789.887 km
Speed
7.49 km/s
True Right ascension
15h 37m 05s
True Declination
0° 00' 00"
Sunlit
Object was in daylight at epoch
Visualization orbit readout
Latitude
Unknown
Longitude
Unknown
Altitude
Unknown
Speed
Unknown
Apparent Right ascension
Unknown
Apparent Declination
Unknown
Sunlit
N/A
Visualization observer readout
Local Sidereal Time
14:04:17
Azimuth
Unknown
Elevation
Unknown
Doppler factor
Unknown
Orbital elements
Apogee altitude
910.945 km
Perigee altitude
779.006 km
Semi-major axis
7,223.112 km
Eccentricity
0.00913
Inclination
99.2366°
RAAN
234.2738°
Arg. of periapsis
23.2709°
True anomaly
336.84677°
Mean anomaly
337.2557°
Eccentric anomaly
337.05167°
Mean motion
3.53555 °/min
Orbital period
101.82 mins
BSTAR
0.0013993
Loading maneuver chart data...
Computing Atmospheric mass density...
Loading historical data...
Loading historical data...
Loading historical data...
Loading historical data...
Loading historical data...
Loading historical data...
Loading historical data...

Documentation

Showing up to 5 results
|